Temp
4 4 3 4 4 4 4 4 4 4 4 4 4 5 6 6 7 6 7 7 7 11 11 13 13 16 15 15 16 16 17 17 15 16 16 15 17 17 18 18 19 18 16 16 15 15 17 18 20 19 15 10 13 11
4 3 3 3 3 4 4 3 4 4 4 4 4 4 6 6 7 6 6 9 9 10 10 13 14 14 14 16 13 13 16 15 15 14 14 14 16 15 15 18 18 18 16 15 16 16 14 13 15 12 12 12 10 8
3 3 3 3 4 4 3 3 4 4 3 4 4 5 6 6 7 6 7 8 10 9 9 12 14 16 16 16 17 15 13 14 15 13 12 12 16 13 15 16 17 18 17 14 15 14 12 12 11 11 10 9 8 7
3 3 3 3 4 3 3 3 3 3 3 4 5 6 6 7 7 6 6 9 10 9 9 12 15 16 17 18 18 18 15 13 12 11 11 10 13 13 14 16 15 15 16 13 12 13 13 12 11 10 9 8 8 8
3 3 3 3 3 3 3 3 3 3 3 4 5 6 6 7 7 7 7 9 10 9 10 12 14 16 16 18 18 18 15 12 12 13 9 11 11 13 11 13 15 15 14 14 13 14 13 11 10 10 9 8 8 7
3 3 3 3 3 3 3 2 3 3 5 5 6 6 7 7 7 7 9 10 10 10 10 11 12 13 15 16 14 13 12 11 11 11 11 11 12 12 12 14 16 16 15 14 13 14 12 11 10 11 9 8 8 8
3 3 3 3 3 2 2 2 3 4 5 6 6 7 7 7 7 9 9 10 10 10 10 10 12 13 14 13 11 11 11 10 11 10 11 12 13 11 11 14 17 15 14 13 13 12 11 11 10 10 9 9 8 8
3 3 3 3 2 2 2 2 2 4 5 6 6 7 8 8 8 9 10 10 10 11 10 8 11 12 14 12 12 9 11 10 10 10 11 12 11 11 11 15 13 13 13 13 14 13 12 10 10 9 9 8 7 5
3 3 3 2 2 2 2 2 3 5 5 6 7 8 7 7 8 10 10 11 11 11 9 9 10 11 12 10 11 11 10 10 9 11 12 12 11 12 15 13 13 14 13 11 11 11 10 10 9 8 8 7 6 4
2 2 2 2 2 2 1 1 4 5 6 6 7 6 4 8 10 9 10 8 7 7 9 10 9 12 11 10 10 11 9 10 9 12 10 11 12 13 14 13 13 11 11 11 10 9 9 9 8 8 8 7 6 4
1 2 2 2 2 1 1 3 4 5 5 7 6 4 7 8 8 7 7 7 6 10 10 10 11 12 11 11 10 9 8 9 10 12 13 11 11 13 13 12 11 12 12 13 13 12 11 10 8 7 6 5 4 3
1 2 3 2 1 1 2 4 4 5 6 7 6 7 8 6 7 9 7 8 8 12 10 12 12 11 10 10 10 7 9 7 13 9 8 12 10 13 12 12 11 11 11 11 11 10 10 10 8 7 5 4 3 3
2 3 2 1 1 0 2 4 4 5 6 6 6 6 7 5 7 8 9 8 7 8 9 10 10 10 10 9 8 9 12 9 8 7 11 10 11 11 12 11 10 10 10 10 9 9 9 7 7 6 3 3 3 2
3 3 2 1 1 2 3 3 4 6 7 5 5 6 6 6 7 7 8 7 8 9 10 10 8 10 8 10 8 13 10 9 8 9 11 9 10 10 11 11 10 9 9 8 6 6 5 5 4 5 5 4 4 1
3 2 1 1 2 1 2 3 4 5 4 4 5 6 6 6 5 5 6 7 8 11 10 9 8 9 8 10 9 9 11 11 10 11 8 8 8 9 9 9 9 6 5 5 5 4 3 4 3 2 3 4 4 3
2 3 2 2 3 3 2 4 4 3 3 4 5 5 4 5 4 6 7 8 9 9 10 10 10 11 11 9 12 12 11 12 12 8 7 7 8 8 8 7 7 6 6 4 4 3 3 3 2 2 2 3 4 4
3 2 2 3 3 4 3 3 3 1 3 4 3 5 5 5 5 7 7 9 9 12 11 10 13 13 8 9 11 9 9 10 8 7 7 7 7 6 5 5 5 5 4 3 3 3 2 3 3 1 -0 0 2 2
2 2 2 3 4 4 3 2 1 2 3 3 4 4 5 4 5 6 7 8 11 10 11 12 9 12 10 12 10 9 7 5 4 5 5 5 5 6 6 5 5 4 4 3 3 2 2 2 1 1 1 1 1 1
3 2 3 3 4 3 -0 1 2 2 2 3 3 4 4 5 5 5 6 9 9 10 10 10 11 10 10 9 9 7 5 5 4 4 4 5 6 5 5 5 4 3 3 2 2 2 2 3 3 2 2 1 0 0
3 2 3 4 4 2 1 1 2 2 3 3 3 4 4 4 5 6 8 9 9 9 9 7 10 9 8 8 7 6 5 4 6 5 3 3 5 5 4 4 4 3 3 3 2 2 2 2 2 3 2 2 2 0
2 2 2 3 3 2 2 2 2 2 3 3 3 3 4 4 6 7 8 7 6 4 6 7 7 5 5 5 6 6 5 7 6 6 6 3 4 4 4 3 3 3 3 2 2 1 2 2 2 2 2 2 3 3
1 2 3 3 1 1 1 2 2 2 4 6 5 5 5 5 5 4 7 7 4 8 7 7 6 5 5 5 4 6 6 7 7 6 6 5 3 3 3 3 3 2 2 2 2 2 2 3 3 3 3 2 3 3
2 3 2 1 -1 -2 1 2 3 5 6 6 5 6 5 3 4 6 5 7 7 5 6 6 6 6 4 5 5 6 7 7 5 4 5 4 5 4 4 4 4 3 2 3 4 3 3 3 3 3 2 2 2 1
4 1 -2 -2 -1 -2 2 2 3 4 5 5 6 6 7 6 5 6 9 6 5 5 6 5 6 5 4 4 3 4 5 6 5 5 5 4 3 3 4 4 5 5 5 4 4 4 4 3 3 3 2 2 1 1
-1 -1 -1 1 -0 -1 0 3 5 5 5 7 6 5 5 4 4 5 7 6 5 5 4 5 5 4 4 3 3 4 5 6 5 4 6 6 4 3 3 4 5 5 6 5 4 4 3 3 2 2 2 1 1 0
-3 -2 -1 -0 1 1 2 2 3 5 5 5 6 4 5 5 5 6 6 4 4 4 2 5 5 4 4 4 4 3 5 6 6 5 5 6 6 5 3 2 2 3 5 7 6 4 3 3 2 2 2 2 2 1
-3 -0 1 1 2 3 2 3 4 5 4 5 6 5 5 5 3 5 3 2 2 2 3 7 8 6 5 5 6 6 6 6 6 6 6 7 7 6 6 5 4 5 5 6 7 7 5 4 3 3 3 2 2 2
1 2 2 2 2 1 1 3 3 3 5 5 5 4 5 4 4 0 1 0 -0 2 3 6 8 9 8 8 7 6 5 5 5 5 5 5 5 5 5 5 5 5 5 5 6 6 6 6 5 3 3 2 2 1
1 2 1 1 2 2 1 2 4 3 2 4 3 3 1 -0 -2 -2 -2 -2 0 3 4 5 5 7 7 6 6 6 6 5 4 2 2 2 2 3 4 4 4 4 4 4 5 5 6 6 5 5 4 2 1 -0
1 1 1 0 0 -1 -2 -0 1 0 0 0 -0 -0 -1 -1 -2 -3 -2 -2 -0 1 2 3 3 5 2 3 2 3 4 5 7 6 2 2 2 5 4 4 4 4 4 4 4 4 3 1 1 0 -0 -0 -0 -1
1 1 -0 1 0 -0 -0 -0 0 0 -0 -0 0 1 -0 -1 -2 -3 -3 -3 -1 0 1 1 2 2 2 2 2 2 2 4 6 7 8 8 7 7 6 5 5 5 5 5 4 3 2 1 1 0 -0 -1 -1 -1
0 0 0 0 1 0 -0 1 1 1 0 1 1 0 -1 -1 -2 -3 -4 -3 -3 -2 -2 -1 -0 -0 2 3 4 4 5 4 5 6 6 6 7 6 6 6 5 5 5 4 3 2 2 1 1 1 1 0 0 -0
-1 -1 0 1 1 2 0 2 1 0 -0 -0 -1 -2 -3 -3 -3 -4 -4 -4 -5 -4 -3 -1 -0 0 1 1 1 2 3 3 3 3 4 4 3 3 4 4 4 4 4 4 3 2 1 1 1 1 1 1 0 0
Height
680 685 689 694 700 705 709 713 716 718 720 722 725 726 725 731 737 741 744 746 748 736 729 724 720 717 719 721 732 733 735 738 750 763 772 783 783 784 786 784 788 797 809 815 819 828 824 794 797 809 813 824 825 839
680 684 689 694 699 705 708 709 714 714 715 716 719 721 724 730 736 739 740 739 738 740 731 724 721 717 715 713 721 733 734 740 745 761 768 775 780 787 790 797 783 798 796 808 809 812 808 806 802 807 811 817 834 841
682 687 691 695 697 702 704 708 710 711 714 716 719 718 723 729 733 732 734 735 733 734 730 724 720 716 714 712 712 727 735 734 740 742 760 773 778 787 794 793 788 786 787 803 808 813 815 813 813 814 818 823 834 843
686 690 693 696 697 701 705 705 708 710 711 712 713 716 722 728 729 735 735 732 732 731 738 730 718 717 715 712 711 711 719 729 737 744 761 780 780 780 788 783 788 789 789 807 819 818 817 820 820 821 828 833 841 850
689 692 694 697 701 702 704 705 707 708 709 707 711 717 722 725 727 732 733 730 729 734 735 729 721 721 718 715 714 718 721 730 743 754 772 781 778 779 788 786 786 783 793 802 811 803 807 820 825 827 830 839 845 850
690 693 695 698 699 701 705 704 704 705 702 706 711 716 722 725 730 732 728 726 727 728 728 735 731 728 724 721 722 726 729 737 746 758 772 773 772 779 791 791 778 776 778 781 792 799 806 817 826 831 833 842 850 855
690 693 696 699 700 701 701 701 701 698 702 707 712 716 719 722 724 724 725 724 725 725 724 740 741 732 729 728 733 736 736 746 751 766 771 774 775 778 791 790 775 776 780 784 789 800 820 822 828 834 838 847 853 860
691 694 697 699 700 702 702 701 700 699 704 709 713 717 721 723 724 724 724 723 722 720 722 748 746 741 735 742 746 746 750 756 764 771 774 777 779 783 793 778 779 781 786 791 795 795 802 819 830 836 842 849 857 864
695 696 697 701 701 701 700 700 698 701 707 712 716 720 721 723 721 719 722 722 721 724 733 739 747 756 740 748 750 753 757 775 773 776 777 780 787 788 775 778 780 781 783 796 802 806 814 822 831 837 844 852 858 866
698 699 702 703 702 700 698 699 699 705 710 714 719 719 724 721 719 723 724 723 724 724 726 736 739 742 745 752 760 764 771 782 793 782 781 785 783 773 769 772 777 783 787 794 806 820 824 829 832 838 844 851 857 864
702 702 700 700 702 702 701 700 705 710 711 713 712 719 721 720 723 722 729 733 735 731 729 733 734 738 744 752 764 770 785 786 790 784 783 790 787 772 769 775 780 782 784 787 787 797 806 812 827 838 847 853 859 865
701 702 703 704 705 706 704 706 708 711 710 714 717 719 720 723 726 727 739 737 738 729 734 732 735 739 746 748 760 779 781 792 782 789 801 788 779 767 769 776 782 787 790 794 798 806 815 823 829 837 845 853 860 865
706 706 708 709 710 708 706 708 710 711 713 718 721 725 727 740 738 738 737 740 743 732 731 732 739 741 747 752 770 774 775 795 791 805 789 781 768 767 770 776 785 790 793 798 807 812 817 825 833 837 846 854 860 867
710 710 710 712 711 710 708 709 710 711 714 723 731 733 735 738 737 733 733 731 727 725 726 730 742 745 757 761 775 771 787 788 803 803 779 772 765 768 770 775 783 792 796 802 808 815 820 827 836 842 847 853 859 867
713 714 715 716 715 712 712 712 712 713 719 728 732 734 735 731 733 733 730 729 724 722 725 734 746 752 765 768 776 782 784 787 787 776 773 766 764 767 772 778 784 792 799 805 811 817 824 830 837 845 851 856 862 868
721 721 721 721 719 718 719 718 716 720 726 731 735 738 739 737 738 732 729 728 722 722 726 733 749 755 764 770 767 770 779 772 763 767 763 763 766 770 774 779 785 792 799 806 813 819 825 831 838 845 853 859 864 868
721 721 724 725 723 723 725 726 726 733 737 738 743 738 738 739 737 730 727 723 720 721 734 742 745 751 769 771 767 775 772 762 762 763 762 762 767 773 778 783 789 795 802 809 816 823 828 834 840 847 855 861 866 871
723 725 729 730 729 727 730 734 738 740 742 743 742 740 737 737 734 728 724 722 722 726 730 735 747 751 763 759 765 761 762 764 765 765 765 767 772 776 780 785 792 797 804 812 817 824 829 835 842 849 854 860 867 873
729 731 732 734 735 735 737 738 739 744 744 743 741 738 738 734 730 728 727 725 724 725 730 738 745 756 756 753 752 755 758 761 765 769 771 773 775 779 784 791 795 801 807 812 819 825 830 835 839 845 852 859 865 871
732 735 737 737 733 735 740 743 744 745 744 744 741 740 739 736 730 727 725 726 729 732 740 752 748 747 749 748 747 748 754 758 760 770 778 780 781 783 788 792 799 804 811 818 823 826 832 839 844 847 852 857 862 868
737 740 742 742 742 743 746 747 747 748 746 745 742 742 741 735 732 732 732 733 741 752 755 748 748 749 748 747 746 747 753 757 761 763 769 781 784 786 791 796 800 806 811 818 823 829 833 836 841 847 852 858 863 868
742 746 747 745 745 746 749 750 747 746 746 743 742 741 743 743 742 742 737 742 750 744 744 746 748 750 749 750 752 754 758 761 765 768 772 776 784 789 794 797 802 808 812 816 820 825 831 836 841 847 852 858 864 869
744 747 748 749 754 759 758 749 746 744 743 745 746 743 745 748 744 739 747 744 745 744 744 746 749 751 752 755 758 762 764 765 769 772 775 779 783 788 793 798 802 805 812 818 821 825 831 836 842 847 852 858 863 868
746 749 756 759 761 765 755 752 749 747 745 747 745 747 745 746 744 745 742 748 747 745 746 749 750 755 760 762 766 767 769 770 772 775 777 780 786 792 795 798 803 807 811 815 821 827 832 837 841 847 851 856 861 865
757 760 762 760 761 765 761 753 743 746 749 744 748 751 750 751 754 755 748 749 749 748 751 753 755 757 761 765 768 770 771 772 774 777 781 783 788 793 798 802 806 809 812 817 823 827 832 836 841 845 849 853 857 862
766 761 762 758 757 758 753 753 752 745 748 749 747 752 752 752 755 751 749 752 751 750 752 753 756 759 761 761 766 769 771 774 776 779 782 785 788 791 796 801 805 810 813 817 820 825 831 835 839 844 848 852 855 859
767 759 756 753 749 748 751 748 745 745 749 748 746 752 755 758 765 753 756 756 755 753 753 754 757 757 759 762 765 768 772 775 777 780 783 788 791 795 798 801 805 809 813 817 820 824 828 833 838 842 846 850 853 857
749 745 744 746 746 748 752 751 751 752 745 744 747 756 751 758 758 766 762 759 757 755 755 756 757 758 760 762 765 769 774 777 780 783 786 791 794 797 800 804 808 811 815 818 821 825 828 832 836 840 844 848 851 855
745 744 745 748 748 748 750 747 741 744 749 747 752 757 765 771 774 770 764 759 756 756 756 756 759 760 762 764 768 771 774 776 779 785 788 791 793 796 799 803 807 810 813 816 821 825 829 832 835 838 842 845 849 852
745 743 745 749 752 754 754 750 749 751 752 753 758 765 771 775 774 770 764 761 760 758 760 760 761 761 763 765 770 774 777 778 779 781 786 790 791 793 797 801 805 808 811 815 819 824 828 831 834 838 841 844 847 849
743 744 747 746 749 749 750 752 754 753 754 758 759 762 767 770 773 771 767 766 765 763 763 764 765 765 765 768 771 775 779 780 781 783 785 787 790 794 798 802 805 808 811 815 818 822 825 829 832 835 838 841 843 846
741 742 744 745 744 746 747 749 751 757 761 762 762 766 770 771 776 780 780 774 770 767 770 770 770 772 773 774 776 778 779 781 783 786 787 790 792 796 800 803 806 809 812 815 818 822 825 828 830 833 836 838 840 842
742 742 742 743 743 741 744 742 749 758 762 766 771 775 777 778 784 789 786 785 785 783 780 779 779 778 778 781 783 785 786 786 788 790 791 793 796 798 801 804 807 810 813 815 818 821 823 826 828 830 833 835 837 839
Wind_Speed
17 18 24 26 24 20 17 17 18 16 15 14 17 13 14 29 27 23 9 19 8 2 5 2 3 2 2 2 5 4 4 4 4 5 4 3 3 3 4 4 5 4 5 2 3 4 3 3 3 7 4 5 14 13
16 19 21 22 20 18 17 16 17 13 12 14 17 20 23 27 23 21 7 17 17 4 4 5 3 5 2 2 6 2 6 3 4 5 2 3 3 2 4 2 3 1 5 6 3 3 3 4 2 5 4 12 6 10
17 20 19 17 17 15 17 16 13 11 12 17 19 20 24 24 22 23 13 15 5 0 3 3 3 7 11 6 2 5 1 5 3 2 4 3 5 3 3 2 4 3 1 4 3 6 5 7 9 7 6 12 13 17
16 15 15 15 14 15 17 12 12 12 15 24 14 26 24 22 23 25 16 9 3 2 3 4 6 3 9 4 6 8 12 8 6 4 4 3 4 2 3 3 4 4 3 5 4 4 7 9 8 14 15 17 18 18
13 13 14 14 16 15 11 14 14 15 17 15 23 24 22 19 19 19 21 9 1 3 4 2 4 14 15 16 24 20 16 6 4 4 4 2 2 3 2 2 2 4 6 4 4 10 4 5 9 16 19 17 16 19
10 12 14 14 13 12 13 13 14 12 11 28 24 23 21 20 20 11 3 8 5 4 2 3 3 6 15 21 23 10 4 5 3 4 2 2 1 3 3 2 3 2 4 5 6 10 8 15 13 16 18 16 20 22
9 11 14 12 11 11 5 12 9 5 22 24 22 20 19 17 10 4 3 1 3 4 3 3 3 5 7 6 4 5 8 4 4 2 3 2 2 3 3 3 3 4 8 14 20 20 12 11 8 15 24 22 24 24
9 11 11 10 10 7 6 11 2 13 25 21 19 21 18 11 4 4 2 2 4 1 3 4 1 4 7 3 3 3 3 4 6 2 2 2 2 2 1 2 5 8 12 13 14 8 14 19 20 17 25 27 19 15
9 8 9 8 9 6 5 5 6 26 24 20 19 19 6 3 2 3 3 6 0 1 4 3 4 3 2 2 2 4 3 4 2 3 2 3 1 2 5 7 11 16 8 13 12 17 19 20 18 17 21 18 16 13
11 9 11 7 7 2 6 3 17 22 24 22 14 4 2 1 12 3 4 2 4 4 3 3 1 4 3 1 3 3 3 2 2 2 1 2 3 4 4 7 11 12 19 21 21 11 14 16 17 18 16 21 23 22
11 10 4 7 6 4 4 11 18 22 18 4 2 2 3 4 3 3 4 4 3 3 2 2 2 5 3 4 3 2 2 1 3 3 3 2 3 4 8 9 7 13 21 15 20 20 24 25 19 16 14 21 24 26
8 7 13 8 6 5 8 14 16 7 4 8 6 5 3 4 4 5 3 3 1 3 2 4 3 4 2 3 4 3 3 3 2 0 3 2 4 3 10 11 9 12 13 15 25 22 23 24 26 25 25 23 26 30
9 12 12 8 3 2 9 14 12 11 18 8 3 3 3 4 3 5 5 3 1 3 3 3 4 3 3 4 4 4 4 3 1 3 4 5 2 4 10 11 9 12 18 20 19 22 28 26 28 32 27 29 34 35
14 15 11 8 4 5 11 8 12 9 6 3 3 4 1 3 3 4 3 3 4 3 5 5 4 4 2 4 2 4 1 3 3 0 5 3 5 7 10 12 15 12 14 19 20 24 27 29 27 30 34 37 38 36
17 17 13 11 9 21 13 9 10 11 5 3 3 2 4 2 2 2 2 3 2 6 4 4 4 4 3 4 2 4 3 3 6 5 3 3 6 10 11 11 13 12 12 16 23 24 25 29 28 28 32 35 34 36
19 17 14 12 12 11 12 12 13 6 4 3 3 2 2 1 3 2 2 2 2 4 3 4 4 4 2 5 3 4 7 6 4 4 3 5 7 8 10 10 13 19 21 21 21 24 27 29 29 29 30 31 33 37
6 5 13 12 12 9 8 8 9 5 3 3 2 2 1 2 3 2 3 3 2 3 3 4 4 3 3 3 2 4 5 3 2 2 2 5 10 10 10 16 19 23 22 22 23 23 24 28 32 31 24 26 30 33
8 14 12 13 10 7 4 4 3 2 4 2 2 2 2 2 3 3 2 2 2 3 3 3 4 3 5 6 3 4 3 1 2 2 3 6 8 14 18 19 19 22 23 22 24 26 29 29 24 20 27 30 29 30
16 16 13 5 8 3 3 5 4 3 1 1 3 2 2 3 4 4 3 2 2 2 5 3 5 3 3 4 4 3 3 3 3 2 3 8 15 18 19 18 22 22 24 26 27 23 23 26 27 31 32 33 28 31
15 15 12 11 8 4 4 3 2 2 1 1 1 3 3 3 4 3 2 2 2 3 4 3 3 3 3 2 3 3 3 5 6 5 4 4 14 19 19 22 18 22 22 22 21 26 25 22 25 30 33 33 34 32
13 11 6 9 4 6 2 0 2 1 2 1 2 3 3 3 1 2 2 1 3 2 1 3 1 1 1 2 5 10 10 9 3 3 6 5 12 17 18 19 24 22 22 20 20 19 22 22 29 31 33 33 30 32
6 10 2 6 6 4 2 2 1 3 1 1 2 2 2 2 2 0 1 3 1 2 3 3 3 2 3 4 6 10 15 17 14 17 17 22 6 9 13 20 21 17 19 21 23 23 24 27 30 30 31 29 27 27
10 4 4 6 5 4 3 3 3 2 0 0 2 3 2 3 2 1 2 1 1 2 1 3 6 11 10 13 16 14 13 17 11 13 15 16 19 20 22 22 23 22 18 19 25 27 28 26 28 29 28 28 27 26
8 4 3 2 2 1 2 2 1 1 1 2 1 2 1 2 3 3 2 2 2 1 2 5 12 6 7 8 3 5 9 14 16 15 19 19 13 14 21 24 24 23 23 28 26 26 26 27 27 28 28 29 29 29
5 4 4 1 1 2 2 2 2 2 2 2 2 1 2 2 2 2 3 2 0 2 3 5 4 2 4 3 4 9 11 18 13 9 14 19 19 17 16 17 18 20 22 26 25 26 27 26 27 28 29 30 31 29
2 4 5 5 2 3 4 3 4 4 3 1 2 2 2 2 1 2 2 0 1 2 3 5 5 3 2 5 6 7 13 15 17 11 12 18 20 18 15 12 12 15 22 26 29 28 28 28 28 28 28 28 29 29
3 5 4 3 2 2 1 2 2 2 3 5 3 2 2 0 3 0 2 4 3 5 4 4 10 8 8 13 14 16 18 17 16 14 17 18 18 17 20 15 12 14 20 22 26 28 29 29 28 27 27 26 27 28
3 2 4 3 1 1 3 2 2 5 4 2 3 2 6 2 1 3 2 11 16 11 7 7 10 14 17 18 18 19 18 16 13 14 15 15 13 15 16 17 15 17 18 20 22 25 26 27 27 27 26 26 25 26
1 1 1 3 2 2 3 4 2 2 2 1 3 2 2 2 4 5 8 19 13 4 7 12 13 16 17 18 18 20 22 23 18 7 8 5 5 13 16 16 15 16 17 23 21 20 21 22 22 23 23 23 23 22
1 1 1 2 3 4 3 2 0 1 2 3 4 3 2 2 8 16 16 18 13 10 6 10 16 20 16 18 17 15 14 16 15 16 6 6 9 9 17 18 16 16 17 22 25 21 19 17 17 17 17 18 19 19
2 2 2 2 3 3 2 3 6 4 3 3 3 3 3 3 2 23 29 24 17 17 17 15 15 14 18 17 16 14 10 9 10 9 5 8 10 13 16 16 15 16 18 21 22 22 20 19 18 18 18 19 20 21
2 3 3 2 1 2 3 3 3 3 2 1 1 2 2 2 4 8 25 25 22 20 21 17 15 16 16 14 13 15 18 18 14 12 10 10 10 13 15 15 15 15 17 18 19 19 19 20 19 18 18 19 20 21
2 2 2 3 3 4 1 3 3 3 3 2 3 2 2 3 4 4 11 19 17 14 14 16 17 19 20 20 18 16 14 13 12 10 7 5 8 8 9 11 13 14 13 13 13 14 15 18 19 17 17 18 18 19
Wind_Direction
171 178 186 187 192 197 203 206 207 216 220 231 239 249 225 190 196 201 225 222 236 305 283 272 297 171 109 120 136 209 71 2 48 71 115 177 117 194 95 150 163 148 127 145 93 86 276 100 137 152 178 27 135 136
189 185 182 189 195 194 200 201 209 220 229 252 236 255 196 191 194 205 241 238 232 237 251 293 304 27 316 191 124 40 139 126 166 94 79 120 92 84 139 151 41 98 174 151 148 197 324 342 78 94 120 127 124 118
162 164 170 182 193 195 196 196 215 222 236 225 238 193 193 189 193 207 228 273 229 285 313 31 323 351 28 27 102 114 340 147 89 156 147 132 94 121 124 197 108 84 165 89 112 3 39 84 76 75 83 110 113 128
156 160 173 183 192 180 192 212 224 234 243 222 220 186 190 188 192 203 224 263 236 88 111 292 9 20 359 68 107 101 123 88 99 69 83 104 111 162 185 157 124 192 99 113 69 66 88 37 92 112 102 107 113 122
163 165 173 173 171 181 199 216 229 231 222 235 179 184 184 189 190 218 236 252 291 169 169 200 321 16 43 101 93 100 98 95 64 55 59 109 120 106 12 78 121 181 157 146 202 185 127 140 137 132 125 129 130 128
167 163 168 164 170 175 207 209 208 209 182 168 174 180 182 174 195 208 229 206 230 234 102 73 285 345 19 73 66 55 55 70 79 101 118 95 71 103 96 144 245 195 159 151 148 148 113 129 135 139 127 134 134 132
170 166 164 173 170 179 198 203 193 144 158 162 173 177 180 180 189 209 208 221 280 257 97 69 13 332 348 25 36 33 38 62 83 103 64 103 33 77 102 152 218 105 114 116 114 110 100 141 150 138 129 130 126 126
168 165 168 177 183 159 179 178 59 160 163 165 170 172 173 185 189 235 265 352 339 140 69 99 340 20 18 21 58 359 58 30 18 104 47 84 15 47 106 230 96 104 109 116 127 94 128 121 126 124 126 126 121 122
156 175 167 176 175 164 135 149 21 152 159 161 156 158 150 214 162 268 246 309 355 170 115 97 129 177 9 24 78 39 49 52 302 80 37 73 310 214 210 157 142 146 149 134 106 115 125 133 134 135 133 132 129 134
175 170 171 171 163 156 129 16 121 146 153 149 144 192 61 121 132 250 262 27 27 340 46 93 154 115 92 35 46 80 28 64 64 286 42 74 251 255 184 154 144 131 127 124 116 120 129 139 145 148 150 147 144 146
146 145 156 143 137 62 97 94 134 149 149 95 11 83 104 79 171 23 356 55 344 51 10 138 127 122 352 97 122 40 149 40 89 263 119 305 279 232 145 140 143 152 152 158 157 155 159 150 149 141 135 140 143 146
120 135 141 118 128 47 88 124 143 130 135 126 117 89 46 34 33 79 320 345 58 157 175 128 152 119 73 100 95 344 96 41 162 130 79 252 250 221 146 143 138 149 136 125 139 136 138 141 143 140 141 143 148 153
130 122 127 110 102 118 31 94 64 106 130 115 65 64 49 346 99 167 155 246 252 189 184 162 78 110 75 54 69 76 79 190 74 55 229 230 234 165 152 137 122 121 120 117 116 125 129 128 138 143 141 153 158 156
111 113 102 105 50 48 105 63 45 98 93 82 85 46 77 172 226 193 194 198 226 135 126 109 71 86 80 59 107 92 205 102 56 198 235 235 200 150 146 143 130 138 134 131 127 130 129 134 139 153 158 161 161 158
106 108 112 102 62 61 69 53 49 51 63 85 112 131 220 272 266 272 272 304 241 151 114 84 59 83 44 97 47 113 112 216 208 228 231 219 153 142 136 139 134 130 130 130 135 133 135 139 142 147 160 164 166 164
111 113 111 115 83 49 36 37 35 43 54 55 61 88 312 83 306 279 203 262 208 141 82 57 98 80 83 124 128 188 151 219 239 215 224 135 132 134 132 130 130 135 135 133 136 139 142 146 148 150 160 167 169 169
84 107 137 125 105 98 91 43 6 42 58 46 30 359 306 257 253 262 198 235 168 89 117 113 94 161 113 89 167 184 202 222 241 228 148 133 140 131 122 122 127 130 129 131 133 138 140 150 154 148 145 166 171 174
124 137 142 127 103 59 50 65 97 83 58 22 52 302 302 250 278 292 300 250 111 101 111 137 118 111 145 162 226 226 202 64 27 104 96 107 110 122 135 131 132 135 134 136 141 143 147 148 148 151 158 166 171 173
144 143 142 119 27 57 58 20 30 66 333 301 288 298 283 274 258 262 263 227 95 94 105 58 84 138 212 217 190 177 150 161 142 107 77 97 126 129 125 129 133 133 138 144 147 151 156 161 164 164 165 168 165 173
142 145 147 25 27 52 46 3 33 94 358 291 316 318 301 275 304 326 88 84 64 56 46 71 177 213 184 246 194 152 132 140 128 107 86 76 120 128 137 140 139 135 129 132 136 144 146 151 169 173 172 172 171 177
151 172 186 10 57 57 73 328 330 192 292 356 284 3 310 323 358 69 94 168 67 94 127 218 190 333 71 46 109 125 128 141 135 137 155 140 140 133 128 132 137 141 141 145 147 152 159 164 173 179 179 181 183 184
128 153 88 24 44 15 64 278 185 288 356 310 359 331 27 359 333 253 220 74 104 203 176 138 135 115 82 65 64 112 129 119 111 111 124 132 135 131 138 146 143 147 155 161 163 164 170 177 178 180 183 182 185 186
116 103 55 40 46 33 271 333 44 286 328 30 43 12 4 345 277 264 79 119 221 305 98 99 95 97 98 103 114 125 142 137 119 123 127 127 137 150 152 158 162 152 149 167 177 173 172 177 179 180 183 182 183 184
110 52 62 53 80 265 315 5 243 282 64 68 79 33 358 333 332 52 69 325 295 347 64 113 120 99 78 78 75 119 138 153 132 121 137 131 128 148 166 171 178 178 177 172 173 174 174 175 180 183 183 184 187 189
77 296 112 195 211 83 67 295 154 78 100 138 105 10 321 4 66 73 163 237 216 109 110 106 95 83 126 124 128 148 158 161 141 130 146 145 133 134 148 167 175 181 180 169 170 173 175 178 182 185 186 190 191 192
135 226 172 195 191 162 181 132 184 148 141 122 174 88 27 43 35 209 204 133 248 168 168 170 163 144 135 146 149 161 168 166 151 131 149 170 161 154 152 148 149 173 185 190 179 178 179 182 185 187 191 196 198 198
172 203 219 224 209 139 143 174 233 120 145 191 152 118 81 216 243 198 359 23 341 353 339 220 197 156 149 155 169 171 168 169 172 174 175 180 188 190 185 175 176 186 189 192 193 191 189 188 190 194 197 200 204 206
221 194 161 170 263 83 75 354 182 187 187 192 96 135 165 188 276 333 319 333 328 311 276 224 202 172 163 166 164 160 161 162 156 156 162 172 188 202 203 208 212 212 207 201 203 202 200 200 198 198 201 204 206 212
229 149 119 161 115 126 197 205 246 47 14 146 109 104 98 54 342 315 309 322 325 260 168 130 130 145 136 143 153 156 157 160 138 127 143 158 169 206 205 209 211 214 210 201 199 204 207 210 212 212 213 213 216 217
261 28 87 124 155 212 235 188 198 13 27 70 105 112 98 130 22 17 14 14 23 55 111 150 158 149 135 127 120 127 156 175 184 164 153 182 193 180 187 194 199 198 195 194 194 195 203 206 206 207 206 209 211 211
167 176 138 159 202 190 164 137 131 86 43 46 58 93 118 144 78 27 21 14 28 67 82 81 87 117 126 130 132 123 99 110 137 148 133 157 161 166 174 182 186 186 185 187 191 194 194 194 199 204 207 210 215 219
176 188 135 181 143 189 192 163 102 97 109 53 53 80 57 52 62 23 13 22 24 37 37 56 69 77 103 115 121 114 117 115 110 106 110 132 147 167 177 181 186 188 189 193 196 198 201 202 203 209 216 218 221 222
64 12 121 143 185 196 210 112 92 93 50 88 93 88 24 60 83 14 14 30 30 32 45 69 81 90 95 97 100 101 102 101 98 91 78 104 139 157 172 182 189 190 190 196 200 203 204 207 211 217 219 226 230 233